TimeBST,TemperatureF,Dew PointF,Humidity,Sea Level PressureIn,VisibilityMPH,Wind Direction,Wind SpeedMPH,Gust SpeedMPH,PrecipitationIn,Events,Conditions,WindDirDegrees,DateUTC
12:20 AM,55.4,55.4,100,29.92,6.2,NE,2.3,-,N/A,,Mostly Cloudy,50,2013-09-27 23:20:00
12:50 AM,55.4,55.4,100,29.92,6.2,ENE,3.5,-,N/A,,Mostly Cloudy,70,2013-09-27 23:50:00
1:20 AM,55.4,53.6,94,29.92,5.0,ENE,3.5,-,N/A,,Mostly Cloudy,60,2013-09-28 00:20:00
1:50 AM,55.4,53.6,94,29.92,5.0,ENE,3.5,-,N/A,,Mostly Cloudy,60,2013-09-28 00:50:00
2:20 AM,53.6,53.6,100,29.92,5.0,Variable,2.3,-,N/A,,Mostly Cloudy,0,2013-09-28 01:20:00
2:50 AM,53.6,53.6,100,29.89,3.7,ENE,2.3,-,N/A,,Mostly Cloudy,60,2013-09-28 01:50:00
3:20 AM,53.6,53.6,100,29.89,1.0,Calm,Calm,-,N/A,,Mostly Cloudy,0,2013-09-28 02:20:00
3:50 AM,53.6,53.6,100,29.89,1.1,Calm,Calm,-,N/A,,Mostly Cloudy,0,2013-09-28 02:50:00
4:20 AM,53.6,53.6,100,29.89,1.6,North,2.3,-,N/A,,Mostly Cloudy,10,2013-09-28 03:20:00
4:50 AM,51.8,51.8,100,29.89,0.1,NE,2.3,-,N/A,Fog,Fog,50,2013-09-28 03:50:00
5:20 AM,50.0,50.0,100,29.89,0.1,Calm,Calm,-,N/A,Fog,Fog,0,2013-09-28 04:20:00
5:50 AM,48.2,48.2,100,29.89,1.2,East,2.3,-,N/A,Fog,Patches of Fog,100,2013-09-28 04:50:00
6:20 AM,50.0,50.0,100,29.89,3.7,Variable,3.5,-,N/A,Fog,Patches of Fog,0,2013-09-28 05:20:00
6:50 AM,46.4,46.4,100,29.89,0.1,Calm,Calm,-,N/A,Fog,Fog,0,2013-09-28 05:50:00
7:20 AM,48.2,48.2,100,29.89,3.7,SSE,2.3,-,N/A,Fog,Patches of Fog,160,2013-09-28 06:20:00
7:50 AM,44.6,44.6,100,29.89,3.7,Calm,Calm,-,N/A,Fog,Patches of Fog,0,2013-09-28 06:50:00
8:20 AM,46.4,46.4,100,29.89,0.1,West,2.3,-,N/A,Fog,Fog,260,2013-09-28 07:20:00
8:50 AM,50.0,50.0,100,29.89,0.1,West,2.3,-,N/A,Fog,Fog,260,2013-09-28 07:50:00
9:20 AM,51.8,51.8,100,29.89,3.7,Calm,Calm,-,N/A,,Mostly Cloudy,0,2013-09-28 08:20:00
9:50 AM,53.6,53.6,100,29.89,5.6,Calm,Calm,-,N/A,,Partly Cloudy,0,2013-09-28 08:50:00
10:20 AM,55.4,53.6,94,29.89,6.2,Variable,3.5,-,N/A,,Partly Cloudy,0,2013-09-28 09:20:00
10:50 AM,57.2,51.8,82,29.89,6.2,ENE,4.6,-,N/A,,Partly Cloudy,70,2013-09-28 09:50:00
11:20 AM,59.0,53.6,82,29.89,-9999.0,East,4.6,-,N/A,,Clear,80,2013-09-28 10:20:00
11:50 AM,60.8,53.6,77,29.89,-9999.0,East,4.6,-,N/A,,Clear,90,2013-09-28 10:50:00
12:20 PM,62.6,53.6,72,29.89,-9999.0,ESE,5.8,-,N/A,,Clear,120,2013-09-28 11:20:00
12:50 PM,64.4,55.4,73,29.89,-9999.0,ESE,5.8,-,N/A,,Clear,110,2013-09-28 11:50:00
1:20 PM,64.4,55.4,73,29.86,-9999.0,ENE,5.8,-,N/A,,Clear,70,2013-09-28 12:20:00
1:50 PM,66.2,55.4,68,29.86,-9999.0,ENE,6.9,-,N/A,,Clear,60,2013-09-28 12:50:00
2:20 PM,66.2,55.4,68,29.86,-9999.0,NE,9.2,-,N/A,,Clear,40,2013-09-28 13:20:00
2:50 PM,66.2,55.4,68,29.86,-9999.0,NE,9.2,-,N/A,,Clear,50,2013-09-28 13:50:00
3:20 PM,66.2,55.4,68,29.83,-9999.0,NE,11.5,-,N/A,,Clear,50,2013-09-28 14:20:00
3:50 PM,66.2,55.4,68,29.83,-9999.0,NE,12.7,-,N/A,,Clear,50,2013-09-28 14:50:00
4:20 PM,66.2,55.4,68,29.83,-9999.0,ENE,10.4,-,N/A,,Clear,60,2013-09-28 15:20:00
4:50 PM,66.2,55.4,68,29.83,-9999.0,ENE,11.5,-,N/A,,Clear,60,2013-09-28 15:50:00
5:20 PM,64.4,53.6,68,29.83,-9999.0,ENE,11.5,-,N/A,,Clear,70,2013-09-28 16:20:00
5:50 PM,64.4,53.6,68,29.83,-9999.0,East,10.4,-,N/A,,Clear,80,2013-09-28 16:50:00
6:20 PM,62.6,53.6,72,29.83,-9999.0,ENE,13.8,-,N/A,,Clear,70,2013-09-28 17:20:00
6:50 PM,62.6,53.6,72,29.83,-9999.0,East,10.4,-,N/A,,Clear,80,2013-09-28 17:50:00
7:20 PM,60.8,51.8,72,29.86,-9999.0,ENE,9.2,-,N/A,,Clear,70,2013-09-28 18:20:00
7:50 PM,59.0,51.8,77,29.86,-9999.0,ENE,8.1,-,N/A,,Clear,70,2013-09-28 18:50:00
8:20 PM,59.0,51.8,77,29.86,-9999.0,East,8.1,-,N/A,,Clear,80,2013-09-28 19:20:00
8:50 PM,59.0,51.8,77,29.86,-9999.0,East,9.2,-,N/A,,Clear,80,2013-09-28 19:50:00
9:20 PM,57.2,51.8,82,29.86,-9999.0,ENE,8.1,-,N/A,,Clear,70,2013-09-28 20:20:00
9:50 PM,57.2,51.8,82,29.86,-9999.0,East,6.9,-,N/A,,Clear,80,2013-09-28 20:50:00
10:20 PM,55.4,50.0,82,29.86,-9999.0,ENE,6.9,-,N/A,,Clear,70,2013-09-28 21:20:00
10:50 PM,55.4,50.0,82,29.89,6.2,East,8.1,-,N/A,,Unknown,80,2013-09-28 21:50:00
11:20 PM,53.6,50.0,88,29.89,-9999.0,ENE,8.1,-,N/A,,Clear,70,2013-09-28 22:20:00
11:50 PM,53.6,50.0,88,29.89,-9999.0,East,6.9,-,N/A,,Clear,80,2013-09-28 22:50:00